contact:dominique.lefevre@mio.osupytheas.fr, maurice.libes@osupytheas.fr, didier.mallarino@osupytheas.fr
Project:EMSO http://www.emso-fr.org/EMSO-France
Depth: 2436.0 m
Title:EMSO Ligure Ouest : Data MII capteur CSTAR
DateTime,Latitude,Longitude,Instrument_Serial,Reference_Counts,Signal_Counts,Corrected_Signal_raw_counts,Calculated_Beam_c_inverse_meters,Internal_thermistor_counts
DateTime,Latitude,Longitude,Instrument_Serial,Reference_Counts,Signal_Counts,Corrected_Signal_raw_counts,Calculated_Beam_c_inverse_meters,Internal_thermistor_counts
2023-03-19T00:01:51,42.805,6.029,CST-1368DR,4349,4769,11646,01.173,551
2023-03-19T00:04:52,42.805,6.029,CST-1368DR,4349,4771,11652,01.171,551
2023-03-19T00:07:54,42.805,6.029,CST-1368DR,4349,4769,11646,01.173,551
2023-03-19T00:10:56,42.805,6.029,CST-1368DR,4349,4764,11635,01.177,551
2023-03-19T00:13:57,42.805,6.029,CST-1368DR,4349,4761,11628,01.180,551
2023-03-19T00:16:59,42.805,6.029,CST-1368DR,4349,4766,11641,01.175,551
2023-03-19T00:20:00,42.805,6.029,CST-1368DR,4349,4770,11651,01.172,551
2023-03-19T00:23:02,42.805,6.029,CST-1368DR,4349,4766,11640,01.175,551
2023-03-19T00:26:03,42.805,6.029,CST-1368DR,4349,4768,11644,01.174,551
2023-03-19T00:29:05,42.805,6.029,CST-1368DR,4349,4769,11647,01.173,551
2023-03-19T00:32:07,42.805,6.029,CST-1368DR,4349,4765,11637,01.176,551
2023-03-19T00:35:08,42.805,6.029,CST-1368DR,4349,4769,11648,01.173,551
2023-03-19T00:38:10,42.805,6.029,CST-1368DR,4349,4768,11645,01.174,551
2023-03-19T00:41:11,42.805,6.029,CST-1368DR,4349,4767,11642,01.175,551
2023-03-19T00:44:13,42.805,6.029,CST-1368DR,4349,4766,11640,01.175,551
2023-03-19T00:47:14,42.805,6.029,CST-1368DR,4349,4770,11649,01.172,551
2023-03-19T00:50:16,42.805,6.029,CST-1368DR,4349,4770,11650,01.172,551
2023-03-19T00:53:18,42.805,6.029,CST-1368DR,4349,4769,11646,01.173,551
2023-03-19T00:56:19,42.805,6.029,CST-1368DR,4349,4769,11647,01.173,551
2023-03-19T00:59:21,42.805,6.029,CST-1368DR,4349,4767,11643,01.174,551
2023-03-19T01:02:22,42.805,6.029,CST-1368DR,4349,4768,11644,01.174,551
2023-03-19T01:05:24,42.805,6.029,CST-1368DR,4349,4768,11645,01.174,551
2023-03-19T01:08:26,42.805,6.029,CST-1368DR,4349,4769,11648,01.173,551
2023-03-19T01:11:27,42.805,6.029,CST-1368DR,4349,4768,11644,01.174,551
2023-03-19T01:14:29,42.805,6.029,CST-1368DR,4349,4769,11647,01.173,551
2023-03-19T01:17:30,42.805,6.029,CST-1368DR,4349,4772,11655,01.170,551
2023-03-19T01:20:32,42.805,6.029,CST-1368DR,4349,4770,11650,01.172,551
2023-03-19T01:23:33,42.805,6.029,CST-1368DR,4349,4769,11646,01.173,551
2023-03-19T01:26:35,42.805,6.029,CST-1368DR,4349,4772,11655,01.170,551
2023-03-19T01:29:37,42.805,6.029,CST-1368DR,4349,4769,11648,01.173,551
2023-03-19T01:32:38,42.805,6.029,CST-1368DR,4349,4772,11654,01.171,551
2023-03-19T01:35:40,42.805,6.029,CST-1368DR,4349,4771,11651,01.172,551
2023-03-19T01:38:41,42.805,6.029,CST-1368DR,4349,4771,11652,01.171,551
2023-03-19T01:41:43,42.805,6.029,CST-1368DR,4349,4775,11661,01.168,551
2023-03-19T01:44:44,42.805,6.029,CST-1368DR,4349,4773,11656,01.170,551
2023-03-19T01:47:46,42.805,6.029,CST-1368DR,4349,4770,11651,01.172,551
2023-03-19T01:50:48,42.805,6.029,CST-1368DR,4349,4772,11655,01.170,551
2023-03-19T01:53:49,42.805,6.029,CST-1368DR,4349,4767,11641,01.175,551
2023-03-19T01:56:51,42.805,6.029,CST-1368DR,4349,4771,11652,01.171,551
2023-03-19T01:59:52,42.805,6.029,CST-1368DR,4349,4769,11648,01.173,551
2023-03-19T02:02:54,42.805,6.029,CST-1368DR,4349,4768,11644,01.174,551
2023-03-19T02:05:56,42.805,6.029,CST-1368DR,4349,4770,11651,01.172,551
2023-03-19T02:08:57,42.805,6.029,CST-1368DR,4349,4771,11652,01.171,551
2023-03-19T02:11:59,42.805,6.029,CST-1368DR,4349,4771,11653,01.171,551
2023-03-19T02:15:00,42.805,6.029,CST-1368DR,4349,4772,11655,01.170,551
2023-03-19T02:18:02,42.805,6.029,CST-1368DR,4349,4773,11658,01.169,551
2023-03-19T02:21:03,42.805,6.029,CST-1368DR,4349,4771,11652,01.171,551
2023-03-19T02:24:05,42.805,6.029,CST-1368DR,4349,4773,11658,01.169,551
2023-03-19T02:27:07,42.805,6.029,CST-1368DR,4349,4773,11657,01.170,551
2023-03-19T02:30:08,42.805,6.029,CST-1368DR,4349,4773,11658,01.169,551
2023-03-19T02:33:10,42.805,6.029,CST-1368DR,4349,4773,11657,01.170,551
2023-03-19T02:36:11,42.805,6.029,CST-1368DR,4349,4773,11657,01.170,551
2023-03-19T02:39:13,42.805,6.029,CST-1368DR,4349,4774,11659,01.169,551
2023-03-19T02:42:14,42.805,6.029,CST-1368DR,4349,4770,11651,01.172,551
2023-03-19T02:45:16,42.805,6.029,CST-1368DR,4349,4774,11659,01.169,551
2023-03-19T02:48:18,42.805,6.029,CST-1368DR,4349,4775,11663,01.167,551
2023-03-19T02:51:19,42.805,6.029,CST-1368DR,4349,4769,11648,01.173,551
2023-03-19T02:54:21,42.805,6.029,CST-1368DR,4349,4773,11657,01.170,551
2023-03-19T02:57:22,42.805,6.029,CST-1368DR,4349,4772,11654,01.171,551
2023-03-19T03:00:24,42.805,6.029,CST-1368DR,4349,4770,11649,01.172,551
2023-03-19T03:03:25,42.805,6.029,CST-1368DR,4349,4772,11655,01.170,551
2023-03-19T03:06:27,42.805,6.029,CST-1368DR,4349,4771,11651,01.172,551
2023-03-19T03:09:29,42.805,6.029,CST-1368DR,4349,4770,11650,01.172,551
2023-03-19T03:12:30,42.805,6.029,CST-1368DR,4349,4772,11655,01.170,551
2023-03-19T03:15:32,42.805,6.029,CST-1368DR,4349,4773,11658,01.169,551
2023-03-19T03:18:33,42.805,6.029,CST-1368DR,4349,4772,11655,01.170,551
2023-03-19T03:21:35,42.805,6.029,CST-1368DR,4349,4769,11648,01.173,551
2023-03-19T03:24:37,42.805,6.029,CST-1368DR,4349,4772,11655,01.170,551
2023-03-19T03:27:38,42.805,6.029,CST-1368DR,4349,4766,11640,01.175,551
2023-03-19T03:30:40,42.805,6.029,CST-1368DR,4349,4773,11658,01.169,551
2023-03-19T03:33:41,42.805,6.029,CST-1368DR,4349,4771,11652,01.171,551
2023-03-19T03:36:43,42.805,6.029,CST-1368DR,4349,4772,11655,01.170,551
2023-03-19T03:39:44,42.805,6.029,CST-1368DR,4349,4771,11652,01.171,551
2023-03-19T03:42:46,42.805,6.029,CST-1368DR,4349,4769,11648,01.173,551
2023-03-19T03:45:48,42.805,6.029,CST-1368DR,4349,4772,11654,01.171,551
2023-03-19T03:48:49,42.805,6.029,CST-1368DR,4349,4771,11652,01.171,551
2023-03-19T03:51:51,42.805,6.029,CST-1368DR,4349,4770,11651,01.172,551
2023-03-19T03:54:52,42.805,6.029,CST-1368DR,4349,4771,11653,01.171,551
2023-03-19T03:57:54,42.805,6.029,CST-1368DR,4349,4770,11649,01.172,551
2023-03-19T04:00:55,42.805,6.029,CST-1368DR,4349,4770,11649,01.172,551
2023-03-19T04:03:57,42.805,6.029,CST-1368DR,4349,4770,11650,01.172,551
2023-03-19T04:06:59,42.805,6.029,CST-1368DR,4349,4770,11650,01.172,551
2023-03-19T04:10:00,42.805,6.029,CST-1368DR,4349,4768,11645,01.174,551
2023-03-19T04:13:02,42.805,6.029,CST-1368DR,4349,4771,11652,01.171,551
2023-03-19T04:16:03,42.805,6.029,CST-1368DR,4349,4769,11648,01.173,551
2023-03-19T04:19:05,42.805,6.029,CST-1368DR,4349,4766,11640,01.175,551
2023-03-19T04:22:07,42.805,6.029,CST-1368DR,4349,4768,11645,01.174,551
2023-03-19T04:25:08,42.805,6.029,CST-1368DR,4349,4770,11649,01.172,551
2023-03-19T04:28:10,42.805,6.029,CST-1368DR,4349,4770,11649,01.172,551
2023-03-19T04:31:11,42.805,6.029,CST-1368DR,4349,4771,11652,01.171,551
2023-03-19T04:34:13,42.805,6.029,CST-1368DR,4349,4773,11657,01.170,551
2023-03-19T04:37:14,42.805,6.029,CST-1368DR,4349,4771,11652,01.171,551
2023-03-19T04:40:16,42.805,6.029,CST-1368DR,4349,4769,11647,01.173,551
2023-03-19T04:43:18,42.805,6.029,CST-1368DR,4349,4772,11655,01.170,551
2023-03-19T04:46:19,42.805,6.029,CST-1368DR,4349,4772,11655,01.170,551
2023-03-19T04:49:21,42.805,6.029,CST-1368DR,4349,4772,11655,01.170,551
2023-03-19T04:52:22,42.805,6.029,CST-1368DR,4349,4768,11645,01.174,551
2023-03-19T04:55:24,42.805,6.029,CST-1368DR,4349,4763,11633,01.178,551
2023-03-19T04:58:25,42.805,6.029,CST-1368DR,4349,4770,11649,01.172,551
2023-03-19T05:01:27,42.805,6.029,CST-1368DR,4349,4771,11652,01.171,551
2023-03-19T05:04:29,42.805,6.029,CST-1368DR,4349,4769,11647,01.173,551
2023-03-19T05:07:30,42.805,6.029,CST-1368DR,4349,4770,11649,01.172,551
2023-03-19T05:10:32,42.805,6.029,CST-1368DR,4349,4768,11644,01.174,551
2023-03-19T05:13:33,42.805,6.029,CST-1368DR,4349,4771,11653,01.171,551
2023-03-19T05:16:35,42.805,6.029,CST-1368DR,4349,4767,11641,01.175,551
2023-03-19T05:19:37,42.805,6.029,CST-1368DR,4349,4768,11644,01.174,551
2023-03-19T05:22:38,42.805,6.029,CST-1368DR,4349,4770,11649,01.172,551
2023-03-19T05:25:40,42.805,6.029,CST-1368DR,4349,4766,11640,01.175,551
2023-03-19T05:28:41,42.805,6.029,CST-1368DR,4349,4769,11648,01.173,551
2023-03-19T05:31:43,42.805,6.029,CST-1368DR,4349,4768,11645,01.174,551
2023-03-19T05:34:44,42.805,6.029,CST-1368DR,4349,4770,11650,01.172,551
2023-03-19T05:37:46,42.805,6.029,CST-1368DR,4349,4769,11647,01.173,551
2023-03-19T05:40:48,42.805,6.029,CST-1368DR,4349,4766,11639,01.176,551
2023-03-19T05:43:49,42.805,6.029,CST-1368DR,4349,4769,11648,01.173,551
2023-03-19T05:46:51,42.805,6.029,CST-1368DR,4349,4769,11646,01.173,551
2023-03-19T05:49:52,42.805,6.029,CST-1368DR,4349,4769,11648,01.173,551
2023-03-19T05:52:54,42.805,6.029,CST-1368DR,4349,4768,11645,01.174,551
2023-03-19T05:55:55,42.805,6.029,CST-1368DR,4349,4768,11644,01.174,551
2023-03-19T05:58:57,42.805,6.029,CST-1368DR,4349,4768,11644,01.174,551
2023-03-19T06:01:59,42.805,6.029,CST-1368DR,4349,4765,11638,01.176,551
2023-03-19T06:05:00,42.805,6.029,CST-1368DR,4349,4767,11643,01.174,551
2023-03-19T06:08:02,42.805,6.029,CST-1368DR,4349,4766,11639,01.176,551
2023-03-19T06:11:03,42.805,6.029,CST-1368DR,4349,4759,11623,01.181,551
2023-03-19T06:14:05,42.805,6.029,CST-1368DR,4349,4764,11635,01.177,551
2023-03-19T06:17:07,42.805,6.029,CST-1368DR,4349,4767,11642,01.175,551
2023-03-19T06:20:08,42.805,6.029,CST-1368DR,4349,4765,11638,01.176,551
2023-03-19T06:23:10,42.805,6.029,CST-1368DR,4349,4759,11624,01.181,551
2023-03-19T06:26:11,42.805,6.029,CST-1368DR,4349,4766,11639,01.176,551
2023-03-19T06:29:13,42.805,6.029,CST-1368DR,4349,4767,11642,01.175,551
2023-03-19T06:32:14,42.805,6.029,CST-1368DR,4349,4769,11646,01.173,551
2023-03-19T06:35:16,42.805,6.029,CST-1368DR,4349,4766,11639,01.176,551
2023-03-19T06:38:18,42.805,6.029,CST-1368DR,4349,4768,11644,01.174,551
2023-03-19T06:41:19,42.805,6.029,CST-1368DR,4349,4767,11641,01.175,551
2023-03-19T06:44:21,42.805,6.029,CST-1368DR,4349,4764,11634,01.177,551
2023-03-19T06:47:22,42.805,6.029,CST-1368DR,4349,4768,11644,01.174,551
2023-03-19T06:50:24,42.805,6.029,CST-1368DR,4349,4768,11644,01.174,551
2023-03-19T06:53:25,42.805,6.029,CST-1368DR,4349,4763,11632,01.178,551
2023-03-19T06:56:27,42.805,6.029,CST-1368DR,4349,4766,11641,01.175,551
2023-03-19T06:59:29,42.805,6.029,CST-1368DR,4349,4765,11637,01.176,551
2023-03-19T07:02:30,42.805,6.029,CST-1368DR,4349,4767,11643,01.174,551
2023-03-19T07:05:32,42.805,6.029,CST-1368DR,4349,4766,11641,01.175,551
2023-03-19T07:08:33,42.805,6.029,CST-1368DR,4349,4766,11640,01.175,551
2023-03-19T07:11:35,42.805,6.029,CST-1368DR,4349,4767,11643,01.174,551
2023-03-19T07:14:37,42.805,6.029,CST-1368DR,4349,4767,11643,01.174,551
2023-03-19T07:17:38,42.805,6.029,CST-1368DR,4349,4768,11644,01.174,551
2023-03-19T07:20:40,42.805,6.029,CST-1368DR,4349,4766,11639,01.176,551
2023-03-19T07:23:41,42.805,6.029,CST-1368DR,4349,4769,11647,01.173,552
2023-03-19T07:26:43,42.805,6.029,CST-1368DR,4349,4768,11644,01.174,551
2023-03-19T07:29:44,42.805,6.029,CST-1368DR,4349,4766,11640,01.175,551
2023-03-19T07:32:46,42.805,6.029,CST-1368DR,4349,4768,11645,01.174,551
2023-03-19T07:35:48,42.805,6.029,CST-1368DR,4349,4763,11632,01.178,551
2023-03-19T07:38:49,42.805,6.029,CST-1368DR,4349,4767,11643,01.174,551
2023-03-19T07:41:51,42.805,6.029,CST-1368DR,4349,4766,11640,01.175,551
2023-03-19T07:44:52,42.805,6.029,CST-1368DR,4349,4768,11645,01.174,551
2023-03-19T07:47:54,42.805,6.029,CST-1368DR,4349,4775,11663,01.167,551
2023-03-19T07:50:55,42.805,6.029,CST-1368DR,4349,4769,11647,01.173,551
2023-03-19T07:53:57,42.805,6.029,CST-1368DR,4349,4767,11643,01.174,551
2023-03-19T07:56:59,42.805,6.029,CST-1368DR,4349,4764,11636,01.177,551
2023-03-19T08:00:00,42.805,6.029,CST-1368DR,4349,4768,11644,01.174,551
2023-03-19T08:03:02,42.805,6.029,CST-1368DR,4349,4766,11639,01.176,551
2023-03-19T08:06:03,42.805,6.029,CST-1368DR,4349,4767,11643,01.174,551
2023-03-19T08:09:05,42.805,6.029,CST-1368DR,4349,4769,11646,01.173,551
2023-03-19T08:12:06,42.805,6.029,CST-1368DR,4349,4769,11647,01.173,551
2023-03-19T08:15:08,42.805,6.029,CST-1368DR,4349,4768,11644,01.174,551
2023-03-19T08:18:10,42.805,6.029,CST-1368DR,4349,4769,11646,01.173,551
2023-03-19T08:21:11,42.805,6.029,CST-1368DR,4349,4769,11646,01.173,551
2023-03-19T08:24:13,42.805,6.029,CST-1368DR,4349,4768,11644,01.174,551
2023-03-19T08:27:14,42.805,6.029,CST-1368DR,4348,4721,11532,01.213,551
2023-03-19T08:30:16,42.805,6.029,CST-1368DR,4348,4723,11538,01.211,551
2023-03-19T08:33:18,42.805,6.029,CST-1368DR,4349,4737,11570,01.200,551
2023-03-19T08:36:19,42.805,6.029,CST-1368DR,4348,4737,11573,01.198,551
2023-03-19T08:39:21,42.805,6.029,CST-1368DR,4349,4738,11571,01.199,551
2023-03-19T08:42:22,42.805,6.029,CST-1368DR,4348,4728,11549,01.207,551
2023-03-19T08:45:24,42.805,6.029,CST-1368DR,4348,4727,11547,01.207,551
2023-03-19T08:48:25,42.805,6.029,CST-1368DR,4348,4727,11548,01.207,551
2023-03-19T08:51:27,42.805,6.029,CST-1368DR,4349,4757,11618,01.183,551
2023-03-19T08:54:29,42.805,6.029,CST-1368DR,4349,4757,11618,01.183,551
2023-03-19T08:57:30,42.805,6.029,CST-1368DR,4349,4758,11620,01.182,551
2023-03-19T09:00:32,42.805,6.029,CST-1368DR,4349,4753,11609,01.186,551
2023-03-19T09:03:33,42.805,6.029,CST-1368DR,4349,4757,11618,01.183,551
2023-03-19T09:06:35,42.805,6.029,CST-1368DR,4349,4759,11623,01.181,551
2023-03-19T09:09:36,42.805,6.029,CST-1368DR,4349,4759,11622,01.182,551
2023-03-19T09:12:38,42.805,6.029,CST-1368DR,4349,4757,11618,01.183,551
2023-03-19T09:15:40,42.805,6.029,CST-1368DR,4349,4759,11624,01.181,551
2023-03-19T09:18:41,42.805,6.029,CST-1368DR,4349,4758,11621,01.182,551
2023-03-19T09:21:43,42.805,6.029,CST-1368DR,4349,4759,11622,01.182,551
2023-03-19T09:24:44,42.805,6.029,CST-1368DR,4349,4761,11629,01.179,551
2023-03-19T09:27:46,42.805,6.029,CST-1368DR,4349,4761,11628,01.180,551
2023-03-19T09:30:48,42.805,6.029,CST-1368DR,4349,4760,11626,01.180,551
2023-03-19T09:33:49,42.805,6.029,CST-1368DR,4349,4764,11634,01.177,551
2023-03-19T09:36:51,42.805,6.029,CST-1368DR,4348,4763,11635,01.177,551
2023-03-19T09:39:52,42.805,6.029,CST-1368DR,4349,4762,11631,01.178,551
2023-03-19T09:42:54,42.805,6.029,CST-1368DR,4349,4763,11632,01.178,551
2023-03-19T09:45:55,42.805,6.029,CST-1368DR,4348,4760,11628,01.180,551
2023-03-19T09:48:57,42.805,6.029,CST-1368DR,4349,4760,11624,01.181,551
2023-03-19T09:51:59,42.805,6.029,CST-1368DR,4349,4760,11626,01.180,551
2023-03-19T09:55:00,42.805,6.029,CST-1368DR,4348,4761,11629,01.179,551
2023-03-19T09:58:02,42.805,6.029,CST-1368DR,4348,4760,11627,01.180,551
2023-03-19T10:01:03,42.805,6.029,CST-1368DR,4348,4758,11623,01.181,551
2023-03-19T10:04:05,42.805,6.029,CST-1368DR,4348,4758,11623,01.181,551
2023-03-19T10:07:06,42.805,6.029,CST-1368DR,4348,4759,11626,01.180,551
2023-03-19T10:10:08,42.805,6.029,CST-1368DR,4348,4759,11626,01.180,551
2023-03-19T10:13:10,42.805,6.029,CST-1368DR,4348,4763,11635,01.177,551
2023-03-19T10:16:11,42.805,6.029,CST-1368DR,4348,4761,11629,01.179,551
2023-03-19T10:19:13,42.805,6.029,CST-1368DR,4348,4761,11631,01.178,551
2023-03-19T10:22:14,42.805,6.029,CST-1368DR,4348,4754,11613,01.185,551
2023-03-19T10:25:16,42.805,6.029,CST-1368DR,4349,4779,11671,01.165,551
2023-03-19T10:28:17,42.805,6.029,CST-1368DR,4348,4761,11631,01.178,551
2023-03-19T10:31:19,42.805,6.029,CST-1368DR,4348,4762,11633,01.178,551
2023-03-19T10:34:21,42.805,6.029,CST-1368DR,4349,4762,11630,01.179,551
2023-03-19T10:37:22,42.805,6.029,CST-1368DR,4348,4762,11632,01.178,551
2023-03-19T10:40:24,42.805,6.029,CST-1368DR,4348,4762,11634,01.177,551
2023-03-19T10:43:25,42.805,6.029,CST-1368DR,4348,4760,11627,01.180,551
2023-03-19T10:46:27,42.805,6.029,CST-1368DR,4348,4756,11618,01.183,551
2023-03-19T10:49:29,42.805,6.029,CST-1368DR,4348,4755,11616,01.184,551
2023-03-19T10:52:30,42.805,6.029,CST-1368DR,4348,4752,11609,01.186,551
2023-03-19T10:55:32,42.805,6.029,CST-1368DR,4349,4759,11624,01.181,551
2023-03-19T10:58:33,42.805,6.029,CST-1368DR,4348,4762,11634,01.177,551
2023-03-19T11:01:35,42.805,6.029,CST-1368DR,4348,4760,11627,01.180,551
2023-03-19T11:04:36,42.805,6.029,CST-1368DR,4348,4759,11626,01.180,551
2023-03-19T11:07:38,42.805,6.029,CST-1368DR,4348,4759,11625,01.181,551
2023-03-19T11:10:40,42.805,6.029,CST-1368DR,4348,4757,11621,01.182,551
2023-03-19T11:13:41,42.805,6.029,CST-1368DR,4348,4759,11626,01.180,551
2023-03-19T11:16:43,42.805,6.029,CST-1368DR,4348,4761,11630,01.179,551
2023-03-19T11:19:44,42.805,6.029,CST-1368DR,4348,4760,11627,01.180,551
2023-03-19T11:22:46,42.805,6.029,CST-1368DR,4348,4760,11629,01.179,551
2023-03-19T11:25:47,42.805,6.029,CST-1368DR,4348,4759,11626,01.180,551
2023-03-19T11:28:49,42.805,6.029,CST-1368DR,4348,4759,11626,01.180,551
2023-03-19T11:31:51,42.805,6.029,CST-1368DR,4348,4760,11627,01.180,551
2023-03-19T11:34:52,42.805,6.029,CST-1368DR,4348,4760,11628,01.180,551
2023-03-19T11:37:54,42.805,6.029,CST-1368DR,4348,4760,11627,01.180,551
2023-03-19T11:40:55,42.805,6.029,CST-1368DR,4348,4758,11622,01.182,551
2023-03-19T11:43:57,42.805,6.029,CST-1368DR,4348,4759,11626,01.180,551
2023-03-19T11:46:59,42.805,6.029,CST-1368DR,4349,4767,11643,01.174,551
2023-03-19T11:50:00,42.805,6.029,CST-1368DR,4348,4752,11609,01.186,551
2023-03-19T11:53:02,42.805,6.029,CST-1368DR,4348,4760,11627,01.180,551
2023-03-19T11:56:03,42.805,6.029,CST-1368DR,4348,4753,11612,01.185,551
2023-03-19T11:59:05,42.805,6.029,CST-1368DR,4348,4758,11624,01.181,551
2023-03-19T12:02:06,42.805,6.029,CST-1368DR,4348,4760,11627,01.180,551
2023-03-19T12:05:08,42.805,6.029,CST-1368DR,4348,4757,11621,01.182,551
2023-03-19T12:08:10,42.805,6.029,CST-1368DR,4348,4756,11619,01.183,551
2023-03-19T12:11:11,42.805,6.029,CST-1368DR,4348,4759,11626,01.180,551
2023-03-19T12:14:13,42.805,6.029,CST-1368DR,4348,4758,11624,01.181,551
2023-03-19T12:17:14,42.805,6.029,CST-1368DR,4348,4761,11629,01.179,551
2023-03-19T12:20:16,42.805,6.029,CST-1368DR,4348,4759,11626,01.180,551
2023-03-19T12:23:17,42.805,6.029,CST-1368DR,4348,4761,11629,01.179,551
2023-03-19T12:26:19,42.805,6.029,CST-1368DR,4348,4762,11633,01.178,551
2023-03-19T12:29:21,42.805,6.029,CST-1368DR,4348,4759,11625,01.181,551
2023-03-19T12:32:22,42.805,6.029,CST-1368DR,4348,4756,11618,01.183,551
2023-03-19T12:35:24,42.805,6.029,CST-1368DR,4348,4759,11626,01.180,551
2023-03-19T12:38:25,42.805,6.029,CST-1368DR,4348,4760,11627,01.180,551
2023-03-19T12:41:27,42.805,6.029,CST-1368DR,4348,4755,11615,01.184,551
2023-03-19T12:44:28,42.805,6.029,CST-1368DR,4348,4758,11622,01.182,551
2023-03-19T12:47:30,42.805,6.029,CST-1368DR,4348,4757,11621,01.182,551
2023-03-19T12:50:32,42.805,6.029,CST-1368DR,4348,4753,11610,01.186,551
2023-03-19T12:53:33,42.805,6.029,CST-1368DR,4348,4756,11618,01.183,551
2023-03-19T12:56:35,42.805,6.029,CST-1368DR,4348,4757,11620,01.182,551
2023-03-19T12:59:36,42.805,6.029,CST-1368DR,4348,4758,11624,01.181,551
2023-03-19T13:02:38,42.805,6.029,CST-1368DR,4348,4756,11619,01.183,551
2023-03-19T13:05:40,42.805,6.029,CST-1368DR,4348,4760,11627,01.180,551
2023-03-19T13:08:41,42.805,6.029,CST-1368DR,4348,4757,11621,01.182,551
2023-03-19T13:11:43,42.805,6.029,CST-1368DR,4348,4763,11636,01.177,551
2023-03-19T13:14:44,42.805,6.029,CST-1368DR,4348,4759,11626,01.180,551
2023-03-19T13:17:46,42.805,6.029,CST-1368DR,4348,4759,11626,01.180,551
2023-03-19T13:20:47,42.805,6.029,CST-1368DR,4348,4759,11625,01.181,551
2023-03-19T13:23:49,42.805,6.029,CST-1368DR,4348,4759,11624,01.181,551
2023-03-19T13:26:51,42.805,6.029,CST-1368DR,4348,4759,11626,01.180,551
2023-03-19T13:29:52,42.805,6.029,CST-1368DR,4348,4758,11624,01.181,551
2023-03-19T13:32:54,42.805,6.029,CST-1368DR,4348,4759,11624,01.181,551
2023-03-19T13:35:55,42.805,6.029,CST-1368DR,4348,4758,11623,01.181,551
2023-03-19T13:38:57,42.805,6.029,CST-1368DR,4348,4758,11623,01.181,551
2023-03-19T13:41:58,42.805,6.029,CST-1368DR,4348,4760,11628,01.180,551
2023-03-19T13:45:00,42.805,6.029,CST-1368DR,4348,4759,11624,01.181,551
2023-03-19T13:48:02,42.805,6.029,CST-1368DR,4348,4758,11624,01.181,551
2023-03-19T13:51:03,42.805,6.029,CST-1368DR,4348,4760,11627,01.180,551
2023-03-19T13:54:05,42.805,6.029,CST-1368DR,4348,4759,11626,01.180,551
2023-03-19T13:57:06,42.805,6.029,CST-1368DR,4348,4758,11624,01.181,551
2023-03-19T14:00:08,42.805,6.029,CST-1368DR,4348,4760,11627,01.180,551
2023-03-19T14:03:09,42.805,6.029,CST-1368DR,4348,4756,11618,01.183,551
2023-03-19T14:06:11,42.805,6.029,CST-1368DR,4348,4760,11628,01.180,551
2023-03-19T14:09:13,42.805,6.029,CST-1368DR,4348,4756,11619,01.183,551
2023-03-19T14:12:14,42.805,6.029,CST-1368DR,4348,4763,11635,01.177,551
2023-03-19T14:15:16,42.805,6.029,CST-1368DR,4348,4756,11619,01.183,551
2023-03-19T14:18:17,42.805,6.029,CST-1368DR,4348,4757,11620,01.182,551
2023-03-19T14:21:19,42.805,6.029,CST-1368DR,4348,4756,11618,01.183,551
2023-03-19T14:24:21,42.805,6.029,CST-1368DR,4348,4756,11618,01.183,551
2023-03-19T14:27:22,42.805,6.029,CST-1368DR,4348,4759,11625,01.181,551
2023-03-19T14:30:24,42.805,6.029,CST-1368DR,4348,4757,11621,01.182,551
2023-03-19T14:33:25,42.805,6.029,CST-1368DR,4348,4756,11618,01.183,551
2023-03-19T14:36:27,42.805,6.029,CST-1368DR,4348,4758,11622,01.182,551
2023-03-19T14:39:28,42.805,6.029,CST-1368DR,4348,4758,11623,01.181,551
2023-03-19T14:42:30,42.805,6.029,CST-1368DR,4348,4760,11627,01.180,551
2023-03-19T14:45:32,42.805,6.029,CST-1368DR,4348,4762,11632,01.178,551
2023-03-19T14:48:33,42.805,6.029,CST-1368DR,4348,4753,11612,01.185,551
2023-03-19T14:51:35,42.805,6.029,CST-1368DR,4348,4759,11624,01.181,551
2023-03-19T14:54:36,42.805,6.029,CST-1368DR,4348,4759,11624,01.181,551
2023-03-19T14:57:38,42.805,6.029,CST-1368DR,4348,4758,11624,01.181,551
2023-03-19T15:00:39,42.805,6.029,CST-1368DR,4348,4757,11621,01.182,551
2023-03-19T15:03:41,42.805,6.029,CST-1368DR,4348,4758,11622,01.182,551
2023-03-19T15:06:43,42.805,6.029,CST-1368DR,4348,4754,11613,01.185,551
2023-03-19T15:09:44,42.805,6.029,CST-1368DR,4348,4757,11620,01.182,551
2023-03-19T15:12:46,42.805,6.029,CST-1368DR,4348,4756,11618,01.183,551
2023-03-19T15:15:47,42.805,6.029,CST-1368DR,4348,4758,11623,01.181,551
2023-03-19T15:18:49,42.805,6.029,CST-1368DR,4348,4759,11624,01.181,551
2023-03-19T15:21:51,42.805,6.029,CST-1368DR,4348,4755,11616,01.184,551
2023-03-19T15:24:52,42.805,6.029,CST-1368DR,4348,4758,11622,01.182,551
2023-03-19T15:27:54,42.805,6.029,CST-1368DR,4348,4759,11625,01.181,551
2023-03-19T15:30:55,42.805,6.029,CST-1368DR,4348,4767,11645,01.174,551
2023-03-19T15:33:57,42.805,6.029,CST-1368DR,4348,4752,11607,01.187,551
2023-03-19T15:36:58,42.805,6.029,CST-1368DR,4348,4760,11628,01.180,551
2023-03-19T15:40:00,42.805,6.029,CST-1368DR,4348,4757,11621,01.182,551
2023-03-19T15:43:02,42.805,6.029,CST-1368DR,4348,4760,11627,01.180,551
2023-03-19T15:46:03,42.805,6.029,CST-1368DR,4348,4760,11627,01.180,551
2023-03-19T15:49:05,42.805,6.029,CST-1368DR,4348,4759,11626,01.180,551
2023-03-19T15:52:06,42.805,6.029,CST-1368DR,4348,4758,11623,01.181,551
2023-03-19T15:55:08,42.805,6.029,CST-1368DR,4348,4757,11621,01.182,551
2023-03-19T15:58:09,42.805,6.029,CST-1368DR,4348,4756,11618,01.183,551
2023-03-19T16:01:11,42.805,6.029,CST-1368DR,4348,4758,11622,01.182,551
2023-03-19T16:04:13,42.805,6.029,CST-1368DR,4348,4757,11621,01.182,551
2023-03-19T16:07:14,42.805,6.029,CST-1368DR,4348,4759,11626,01.180,551
2023-03-19T16:10:16,42.805,6.029,CST-1368DR,4348,4756,11617,01.183,551
2023-03-19T16:13:17,42.805,6.029,CST-1368DR,4348,4758,11622,01.182,551
2023-03-19T16:16:19,42.805,6.029,CST-1368DR,4348,4759,11626,01.180,551
2023-03-19T16:19:21,42.805,6.029,CST-1368DR,4348,4757,11621,01.182,551
2023-03-19T16:22:22,42.805,6.029,CST-1368DR,4348,4757,11621,01.182,551
2023-03-19T16:25:24,42.805,6.029,CST-1368DR,4348,4759,11626,01.180,551
2023-03-19T16:28:25,42.805,6.029,CST-1368DR,4348,4757,11621,01.182,551
2023-03-19T16:31:27,42.805,6.029,CST-1368DR,4348,4754,11614,01.184,551
2023-03-19T16:34:28,42.805,6.029,CST-1368DR,4348,4754,11613,01.185,551
2023-03-19T16:37:30,42.805,6.029,CST-1368DR,4348,4757,11620,01.182,551